Change the Weather History Date:

Monday, April 22, 2013

  Actual Average Record
Temperature  
Mean Temperature 68 °F -  
Max Temperature 82 °F 72 °F 91 °F (2012)
Min Temperature 55 °F 41 °F 50 °F (2011)
Cooling Degree Days 4    
Growing Degree Days 18 (Base 50)    
Moisture  
Dew Point 21 °F    
Average Humidity 17    
Maximum Humidity 25    
Minimum Humidity 11    
Precipitation  
Precipitation 0.00 in - - ()
Sea Level Pressure  
Sea Level Pressure 30.01 in    
Wind  
Wind Speed 6 mph (South)    
Max Wind Speed 23 mph    
Max Gust Speed 32 mph    
Visibility 10 miles    
Events      
Averages and records for this station are not official NWS values.
T = Trace of Precipitation, MM = Missing Value Source: NWS Daily Summary

Daily Weather History Graph

Daily Weather History Graph

Search for Another Location

Airport or City:

Trip Planner

Search our weather history database for the weather conditions in past years. The results will help you decide how hot, cold, wet, or windy it might be!

Date:

Astronomy

Apr. 22, 2013 Rise Set
Actual Time 5:46 AM MST 7:05 PM MST
Civil Twilight 5:19 AM MST 7:31 PM MST
Nautical Twilight 4:48 AM MST 8:03 PM MST
Astronomical Twilight 4:15 AM MST 8:36 PM MST
Moon 4:04 PM MST (4/22) 3:35 AM MST (4/22)
Length of Visible Light 14h 11m
Length of Day
13h 19m
Waxing Gibbous, 88% of the Moon is Illuminated
Apr 22
Waxing Gibbous
Apr 25
Full
May 2
Last Quarter
May 9
New
May 17
First Quarter

Hourly Weather History & Observations

Time (MST) Temp. Dew Point Humidity Pressure Visibility Wind Dir Wind Speed Gust Speed Precip Events Conditions
12:15 AM 64.4 °F 17.6 °F 16% 30.10 in 10.0 mi Calm Calm - N/A   Clear
12:35 AM 64.4 °F 17.6 °F 16% 30.10 in 10.0 mi East 3.5 mph - N/A   Clear
12:55 AM 62.6 °F 17.6 °F 18% 30.09 in 10.0 mi ESE 3.5 mph - N/A   Clear
1:15 AM 62.6 °F 17.6 °F 18% 30.09 in 10.0 mi Calm Calm - N/A   Clear
1:35 AM 60.8 °F 17.6 °F 19% 30.09 in 10.0 mi Calm Calm - N/A   Clear
1:55 AM 60.8 °F 17.6 °F 19% 30.08 in 10.0 mi NE 3.5 mph - N/A   Clear
2:35 AM 59.0 °F 19.4 °F 22% 30.07 in 10.0 mi NE 3.5 mph - N/A   Clear
2:55 AM 59.0 °F 17.6 °F 20% 30.07 in 10.0 mi NNE 4.6 mph - N/A   Clear
3:15 AM 59.0 °F 19.4 °F 22% 30.07 in 10.0 mi NE 5.8 mph - N/A   Clear
3:35 AM 59.0 °F 19.4 °F 22% 30.07 in 10.0 mi NE 5.8 mph - N/A   Clear
3:55 AM 57.2 °F 19.4 °F 23% 30.07 in 10.0 mi NE 6.9 mph - N/A   Clear
4:15 AM 59.0 °F 19.4 °F 22% 30.07 in 10.0 mi NE 4.6 mph - N/A   Clear
4:35 AM 57.2 °F 19.4 °F 23% 30.07 in 10.0 mi NE 9.2 mph - N/A   Clear
4:55 AM 55.4 °F 19.4 °F 25% 30.07 in 10.0 mi NE 6.9 mph - N/A   Clear
5:15 AM 55.4 °F 19.4 °F 25% 30.06 in 10.0 mi NNE 6.9 mph - N/A   Clear
5:55 AM 55.4 °F 19.4 °F 25% 30.07 in 10.0 mi NE 10.4 mph - N/A   Clear
6:15 AM 55.4 °F 19.4 °F 25% 30.08 in 10.0 mi NE 11.5 mph - N/A   Clear
6:35 AM 57.2 °F 21.2 °F 25% 30.08 in 10.0 mi NNE 11.5 mph - N/A   Clear
6:55 AM 59.0 °F 21.2 °F 23% 30.08 in 10.0 mi NE 10.4 mph - N/A   Clear
7:35 AM 60.8 °F 23.0 °F 23% 30.09 in 10.0 mi NE 3.5 mph - N/A   Clear
7:55 AM 64.4 °F 23.0 °F 21% 30.10 in 10.0 mi NE 4.6 mph - N/A   Clear
8:15 AM 68.0 °F 23.0 °F 18% 30.09 in 10.0 mi East 4.6 mph - N/A   Clear
8:35 AM 69.8 °F 21.2 °F 16% 30.09 in 10.0 mi SE 3.5 mph - N/A   Clear
8:55 AM 69.8 °F 21.2 °F 16% 30.09 in 10.0 mi South 3.5 mph - N/A   Clear
9:15 AM 71.6 °F 23.0 °F 16% 30.09 in 10.0 mi South 5.8 mph - N/A   Clear
9:35 AM 71.6 °F 23.0 °F 16% 30.09 in 10.0 mi SSW 3.5 mph - N/A   Clear
9:55 AM 73.4 °F 23.0 °F 15% 30.09 in 10.0 mi South 5.8 mph - N/A   Clear
10:15 AM 75.2 °F 23.0 °F 14% 30.08 in 10.0 mi South 9.2 mph - N/A   Clear
10:35 AM 73.4 °F 21.2 °F 14% 30.08 in 10.0 mi South 4.6 mph - N/A   Clear
10:55 AM 78.8 °F 23.0 °F 13% 30.08 in 10.0 mi SSE 10.4 mph - N/A   Clear
11:15 AM 75.2 °F 21.2 °F 13% 30.07 in 10.0 mi SSW 9.2 mph - N/A   Clear
11:35 AM 80.6 °F 23.0 °F 12% 30.06 in 10.0 mi SSW 8.1 mph 18.4 mph N/A   Clear
11:55 AM 80.6 °F 23.0 °F 12% 30.04 in 10.0 mi South 9.2 mph 16.1 mph N/A   Clear
12:15 PM 78.8 °F 23.0 °F 13% 30.03 in 10.0 mi Calm Calm - N/A   Clear
12:35 PM 80.6 °F 23.0 °F 12% 30.02 in 10.0 mi SSW 9.2 mph 20.7 mph N/A   Clear
12:55 PM 78.8 °F 23.0 °F 13% 30.01 in 10.0 mi South 11.5 mph 17.3 mph N/A   Clear
1:15 PM 80.6 °F 24.8 °F 13% 30.00 in 10.0 mi SW 8.1 mph 18.4 mph N/A   Clear
1:35 PM 82.4 °F 23.0 °F 11% 29.99 in 10.0 mi SSW 10.4 mph - N/A   Clear
1:55 PM 80.6 °F 23.0 °F 12% 29.98 in 10.0 mi West 9.2 mph 24.2 mph N/A   Clear
2:15 PM 82.4 °F 23.0 °F 11% 29.97 in 10.0 mi SSW 15.0 mph 23.0 mph N/A   Clear
2:35 PM 80.6 °F 23.0 °F 12% 29.95 in 10.0 mi South 13.8 mph 25.3 mph N/A   Clear
2:55 PM 82.4 °F 24.8 °F 12% 29.94 in 10.0 mi South 19.6 mph 25.3 mph N/A   Clear
3:15 PM 80.6 °F 23.0 °F 12% 29.93 in 10.0 mi South 20.7 mph 27.6 mph N/A   Clear
3:35 PM 82.4 °F 24.8 °F 12% 29.92 in 10.0 mi South 20.7 mph 26.5 mph N/A   Clear
3:55 PM 80.6 °F 23.0 °F 12% 29.92 in 10.0 mi SSW 11.5 mph 26.5 mph N/A   Clear
4:15 PM 80.6 °F 23.0 °F 12% 29.91 in 10.0 mi SW 16.1 mph 28.8 mph N/A   Clear
4:35 PM 78.8 °F 23.0 °F 13% 29.91 in 10.0 mi South 13.8 mph 27.6 mph N/A   Clear
4:55 PM 78.8 °F 23.0 °F 13% 29.90 in 10.0 mi South 23.0 mph 32.2 mph N/A   Clear
5:15 PM 77.0 °F 23.0 °F 13% 29.91 in 10.0 mi South 11.5 mph 27.6 mph N/A   Clear
5:35 PM 77.0 °F 23.0 °F 13% 29.91 in 10.0 mi South 17.3 mph 25.3 mph N/A   Clear
5:55 PM 77.0 °F 23.0 °F 13% 29.91 in 10.0 mi South 12.7 mph 31.1 mph N/A   Clear
6:15 PM 77.0 °F 23.0 °F 13% 29.91 in 10.0 mi SW 16.1 mph 24.2 mph N/A   Clear
6:35 PM 75.2 °F 23.0 °F 14% 29.91 in 10.0 mi SSW 10.4 mph 19.6 mph N/A   Clear
6:55 PM 73.4 °F 21.2 °F 14% 29.91 in 10.0 mi SW 9.2 mph 19.6 mph N/A   Clear
7:15 PM 73.4 °F 21.2 °F 14% 29.92 in 10.0 mi WSW 8.1 mph - N/A   Clear
7:35 PM 71.6 °F 21.2 °F 15% 29.93 in 10.0 mi WSW 9.2 mph - N/A   Clear
7:55 PM 71.6 °F 21.2 °F 15% 29.93 in 10.0 mi SW 6.9 mph - N/A   Clear
8:15 PM 69.8 °F 21.2 °F 16% 29.93 in 10.0 mi SW 9.2 mph - N/A   Clear
8:35 PM 69.8 °F 21.2 °F 16% 29.94 in 10.0 mi SSW 6.9 mph - N/A   Clear
8:55 PM 68.0 °F 21.2 °F 17% 29.94 in 10.0 mi SSW 6.9 mph - N/A   Clear
9:15 PM 68.0 °F 21.2 °F 17% 29.95 in 10.0 mi SSW 4.6 mph - N/A   Clear
9:35 PM 68.0 °F 21.2 °F 17% 29.95 in 10.0 mi South 6.9 mph - N/A   Clear
9:55 PM 66.2 °F 21.2 °F 18% 29.94 in 10.0 mi SSW 5.8 mph - N/A   Clear
10:15 PM 66.2 °F 23.0 °F 19% 29.94 in 10.0 mi SW 4.6 mph - N/A   Clear
10:35 PM 64.4 °F 21.2 °F 19% 29.94 in 10.0 mi Calm Calm - N/A   Clear
10:55 PM 64.4 °F 21.2 °F 19% 29.94 in 10.0 mi Calm Calm - N/A   Clear
11:15 PM 64.4 °F 21.2 °F 19% 29.93 in 10.0 mi WNW 3.5 mph - N/A   Clear
11:35 PM 64.4 °F 21.2 °F 19% 29.93 in 10.0 mi NW 3.5 mph - N/A   Clear
11:55 PM 64.4 °F 21.2 °F 19% 29.93 in 10.0 mi NW 4.6 mph - N/A   Clear